Flag for Chile Weather past 2 weeks in Antofagasta, Chile

Now
63 °F

Partly sunny.


Feels Like: 63 °F
Forecast: 61 / 69 °F
Wind: 12 mph from South

Location: Antofagasta Airport

Current Time: May 25, 2015 at 5:07:38 PM

Latest Report: May 25, 2015 at 4:00 PM


Visibility: N/A

Pressure: 29.98 "Hg

Humidity: 77%

Dew point: 55 °F

Location of AntofagastaLocation

Historic Weather in Antofagasta — Graph

°F

Antofagasta temperature yesterday

Maximum temperature yesterday: 66 °F (at 2:00 PM)
Minimum temperature yesterday: 59 °F (at 12:00 AM)
Average temperature yesterday: 62 °F

Past Weeks' High & Low Weather Summary

 TemperatureHumidityPressure
High68 °F (May 14, 2:00 PM)88% (May 19, 2:00 AM)30.24 "Hg (May 19, 2:00 AM)
Low55 °F (May 16, 5:00 AM)53% (May 14, 2:00 PM)29.83 "Hg (May 10, 6:00 PM)
Average62 °F72%29.96 "Hg
* Reported May 10 4:00 PM — May 25 4:00 PM, Antofagasta, Weather by CustomWeather, © 2015

Note: Actual official high and low records may vary slightly from our data, if they occured in-between our weather recording intervals... More about our weather records

Advertising

Antofagasta weather history for previous 24 hours

 ConditionsComfort  
Time TempWeatherWind HumidityBarometerVisibility
4:00 PM
Mon, May 25
63 °FPartly sunny.12 mph77%29.98 "HgN/A
3:00 PM64 °FPartly sunny.10 mph64%29.98 "HgN/A
2:00 PM66 °FPartly sunny.10 mph60%29.95 "HgN/A
1:00 PM66 °FPartly sunny.7 mph60%29.95 "HgN/A
12:00 PM64 °FPartly sunny.5 mph64%29.98 "HgN/A
11:00 AM63 °FPartly sunny.1 mph68%29.95 "HgN/A
10:00 AM61 °FPartly sunny.No wind77%29.95 "HgN/A
9:00 AM57 °FPartly sunny.3 mph77%29.95 "HgN/A
8:00 AM55 °FBroken clouds.5 mph77%29.95 "HgN/A
7:00 AM57 °FPassing clouds.5 mph77%29.95 "HgN/A
6:00 AM57 °FPassing clouds.3 mph77%29.92 "HgN/A
5:00 AM59 °FPassing clouds.3 mph77%29.95 "HgN/A
4:00 AM59 °FPassing clouds.3 mph77%29.95 "HgN/A
3:00 AM55 °FPassing clouds.3 mph82%29.95 "HgN/A
2:00 AM57 °FPassing clouds.2 mph88%29.95 "HgN/A
1:00 AM59 °FPassing clouds.6 mph82%29.95 "HgN/A
12:00 AM61 °FPassing clouds.9 mph77%29.98 "HgN/A
11:00 PM
Sun, May 24
61 °FPassing clouds.10 mph83%30.01 "HgN/A
10:00 PM61 °FPassing clouds.8 mph83%30.01 "HgN/A
9:00 PM61 °FPassing clouds.7 mph83%29.98 "HgN/A
8:00 PM63 °FPassing clouds.9 mph73%29.98 "HgN/A
7:00 PM63 °FPassing clouds.10 mph77%29.98 "HgN/A
6:00 PM63 °FScattered clouds.12 mph77%29.95 "HgN/A
5:00 PM64 °FBroken clouds.12 mph73%29.98 "HgN/A
Weather by CustomWeather, © 2015

See weather overviewHow to use our weather pages